Shute Harbour, Australia

6:00 AM AEST on June 27, 2017 (GMT +1000)
Shute Harbour

Weather History for 94368 - November, 2012

Change the Weather History Date:

Friday, November 23, 2012

  Actual Average Record
Temperature  
Mean Temperature 78 °F -  
Max Temperature 82 °F - - ()
Min Temperature 73 °F - - ()
Cooling Degree Days 12    
Growing Degree Days 28 (Base 50)    
Moisture  
Dew Point 61 °F    
Average Humidity 55    
Maximum Humidity 73    
Minimum Humidity 30    
Precipitation  
Precipitation 0.00 in - - ()
Sea Level Pressure  
Sea Level Pressure 29.95 in    
Wind  
Wind Speed 8 mph ()    
Max Wind Speed 17 mph    
Max Gust Speed -    
T = Trace of Precipitation, MM = Missing Value Source: Averaged Metar Reports

Daily Weather History Graph

Daily Weather History Graph

Search for Another Location

Airport or City:

Trip Planner

Search our weather history database for the weather conditions in past years. The results will help you decide how hot, cold, wet, or windy it might be!

Date:

Astronomy

Nov. 23, 2012 Rise Set
Actual Time 5:15 AM AEST 6:26 PM AEST
Civil Twilight 4:51 AM AEST 6:50 PM AEST
Nautical Twilight 4:22 AM AEST 7:18 PM AEST
Astronomical Twilight 3:53 AM AEST 7:48 PM AEST
Moon 2:00 PM AEST (11/23) 1:27 AM AEST (11/23)
Length of Visible Light 13h 59m
Length of Day
13h 11m
Waxing Gibbous, 74% of the Moon is Illuminated
Nov 23
Waxing Gibbous
Nov 29
Full
Dec 7
Last Quarter
Dec 13
New
Dec 20
First Quarter

Hourly Weather History & Observations

Time (AEST) Temp. Heat Index Dew Point Humidity Pressure Visibility Wind Dir Wind Speed Gust Speed Precip Events Conditions
12:00 AM 75 °F - 64 °F 61% 29.93 in - North 1.2 mph - -  
12:00 AM 75.2 °F - 64.4 °F 69% 29.92 in - North 1.2 mph - N/A   Unknown
12:30 AM 75.2 °F - 62.6 °F 65% 29.92 in - NE 2.3 mph - N/A   Unknown
1:00 AM 75.2 °F - 62.6 °F 65% 29.92 in - Calm Calm - N/A   Unknown
1:30 AM 73.4 °F - 62.6 °F 69% 29.89 in - Calm Calm - N/A   Unknown
2:00 AM 73.4 °F - 64.4 °F 73% 29.89 in - NNE 2.3 mph - N/A   Unknown
2:30 AM 73.4 °F - 64.4 °F 73% 29.89 in - North 3.5 mph - N/A   Unknown
3:00 AM 74 °F - 62 °F 59% 29.88 in - North 4.6 mph - -  
3:00 AM 73.4 °F - 62.6 °F 69% 29.89 in - North 4.6 mph - N/A   Unknown
3:30 AM 73.4 °F - 62.6 °F 69% 29.89 in - NE 5.8 mph - N/A   Unknown
4:00 AM 73.4 °F - 62.6 °F 69% 29.89 in - NE 5.8 mph - N/A   Unknown
4:30 AM 75.2 °F - 64.4 °F 69% 29.89 in - North 5.8 mph - N/A   Unknown
5:00 AM 73.4 °F - 64.4 °F 73% 29.92 in - NNW 2.3 mph - N/A   Unknown
5:30 AM 73.4 °F - 62.6 °F 69% 29.92 in - NNE 4.6 mph - N/A   Unknown
6:00 AM 75 °F - 63 °F 58% 29.94 in - NE 5.8 mph - -  
6:00 AM 75.2 °F - 62.6 °F 65% 29.95 in - NE 5.8 mph - N/A   Unknown
6:30 AM 77.0 °F - 60.8 °F 57% 29.95 in - NNE 4.6 mph - N/A   Unknown
7:00 AM 78.8 °F - 62.6 °F 57% 29.98 in - NE 5.8 mph - N/A   Unknown
7:30 AM 78.8 °F - 62.6 °F 57% 29.98 in - NNE 6.9 mph - N/A   Unknown
8:00 AM 80.6 °F 81.8 °F 62.6 °F 54% 29.98 in - East 5.8 mph - N/A   Unknown
8:30 AM 80.6 °F 81.5 °F 60.8 °F 51% 29.98 in - ESE 11.5 mph - N/A   Unknown
9:00 AM 81 °F - 60 °F 39% 29.99 in - ESE 13.8 mph - -  
9:00 AM 80.6 °F 81.5 °F 60.8 °F 51% 29.98 in - ESE 13.8 mph - N/A   Unknown
9:30 AM 80.6 °F 81.5 °F 60.8 °F 51% 29.98 in - ESE 15.0 mph - N/A   Unknown
10:00 AM 82.4 °F 83.4 °F 62.6 °F 51% 29.98 in - East 15.0 mph - N/A   Unknown
10:30 AM 80.6 °F 81.1 °F 59.0 °F 48% 29.98 in - East 17.3 mph - N/A   Unknown
11:00 AM 80.6 °F 81.1 °F 59.0 °F 48% 29.98 in - East 17.3 mph - N/A   Unknown
11:30 AM 80.6 °F 81.1 °F 59.0 °F 48% 29.98 in - East 16.1 mph - N/A   Unknown
12:00 PM 82 °F - 59 °F 36% 29.98 in - East 16.1 mph - -  
12:00 PM 82.4 °F 82.5 °F 59.0 °F 45% 29.98 in - East 16.1 mph - N/A   Unknown
12:30 PM 80.6 °F 81.1 °F 59.0 °F 48% 29.98 in - East 17.3 mph - N/A   Unknown
1:00 PM 82.4 °F 82.9 °F 60.8 °F 48% 29.95 in - East 13.8 mph - N/A   Unknown
1:30 PM 80.6 °F 81.1 °F 59.0 °F 48% 29.95 in - East 15.0 mph - N/A   Unknown
2:00 PM 80.6 °F - 51.8 °F 37% 29.95 in - East 13.8 mph - N/A   Unknown
2:30 PM 80.6 °F 80.5 °F 55.4 °F 42% 29.95 in - East 11.5 mph - N/A   Unknown
3:00 PM 80 °F - 54 °F 30% 29.93 in - East 13.8 mph - -  
3:00 PM 80.6 °F 80.3 °F 53.6 °F 39% 29.92 in - East 13.8 mph - N/A   Unknown
3:30 PM 80.6 °F 80.5 °F 55.4 °F 42% 29.92 in - East 15.0 mph - N/A   Unknown
4:00 PM 78.8 °F - 59.0 °F 51% 29.92 in - East 15.0 mph - N/A   Unknown
4:30 PM 78.8 °F - 59.0 °F 51% 29.92 in - East 15.0 mph - N/A   Unknown
5:00 PM 78.8 °F - 59.0 °F 51% 29.95 in - East 15.0 mph - N/A   Unknown
5:30 PM 78.8 °F - 62.6 °F 57% 29.95 in - ESE 15.0 mph - N/A   Unknown
6:00 PM 78 °F - 61 °F 47% 29.94 in - East 15.0 mph - -  
6:00 PM 77.0 °F - 60.8 °F 57% 29.95 in - East 15.0 mph - N/A   Unknown
6:30 PM 77.0 °F - 60.8 °F 57% 29.95 in - East 16.1 mph - N/A   Unknown
7:00 PM 77.0 °F - 60.8 °F 57% 29.95 in - East 15.0 mph - N/A   Unknown
7:30 PM 77.0 °F - 60.8 °F 57% 29.95 in - East 17.3 mph - N/A   Unknown
8:00 PM 77.0 °F - 60.8 °F 57% 29.98 in - East 16.1 mph - N/A   Unknown
8:30 PM 77.0 °F - 60.8 °F 57% 29.98 in - East 16.1 mph - N/A   Unknown
9:00 PM 77 °F - 61 °F 48% 29.99 in - East 16.1 mph - -  
9:00 PM 77.0 °F - 60.8 °F 57% 29.98 in - East 16.1 mph - N/A   Unknown
9:30 PM 77.0 °F - 60.8 °F 57% 29.98 in - East 17.3 mph - N/A   Unknown
10:00 PM 77.0 °F - 60.8 °F 57% 29.98 in - East 16.1 mph - N/A   Unknown
10:30 PM 77.0 °F - 60.8 °F 57% 29.98 in - East 15.0 mph - N/A   Unknown
11:00 PM 77.0 °F - 60.8 °F 57% 29.98 in - East 15.0 mph - N/A   Unknown
11:30 PM 77.0 °F - 60.8 °F 57% 29.98 in - East 15.0 mph - N/A   Unknown